This is the latest recevied weather packets stored in our database for station/object BRIVER. If no packets are shown the sender has not sent any weather packets the latest 10 day(s).
| Time | Temp. | Humidity | Pressure | Rain* | Wind** | Luminosity | Snow |
|---|---|---|---|---|---|---|---|
| 1778093551 | 16.67° C | 73% | 1018.7 hPa | 0 mm | - | - | - |
| 1778093428 | 17.22° C | 71% | 1018.8 hPa | 0 mm | - | - | - |
| 1778093128 | 17.22° C | 73% | 1018.8 hPa | 0 mm | - | - | - |
| 1778093009 | 17.22° C | 75% | 1018.8 hPa | 0 mm | - | - | - |
| 1778092828 | 16.67° C | 72% | 1018.8 hPa | 0 mm | - | - | - |
| 1778092528 | 16.67° C | 76% | 1018.8 hPa | 0 mm | - | - | - |
| 1778092469 | 16.67° C | 73% | 1018.7 hPa | 0 mm | - | - | - |
| 1778092228 | 16.11° C | 76% | 1018.7 hPa | 0 mm | - | - | - |
| 1778091928 | 16.11° C | 76% | 1018.9 hPa | 0 mm | - | - | - |
| 1778091628 | 16.11° C | 74% | 1018.8 hPa | 0 mm | - | - | - |
| 1778091390 | 15.56° C | 77% | 1018.9 hPa | 0 mm | - | - | - |
| 1778091328 | 15.56° C | 79% | 1018.9 hPa | 0 mm | - | - | - |
| 1778091028 | 14.44° C | 74% | 1018.8 hPa | 0 mm | - | - | - |
| 1778090849 | 14.44° C | 75% | 1018.8 hPa | 0 mm | - | - | - |
| 1778090728 | 13.89° C | 74% | 1018.8 hPa | 0 mm | - | - | - |
| 1778090428 | 13.89° C | 75% | 1018.8 hPa | 0 mm | - | - | - |
| 1778090128 | 13.89° C | 77% | 1018.9 hPa | 0 mm | - | - | - |
| 1778089828 | 13.89° C | 78% | 1018.8 hPa | 0 mm | - | - | - |
| 1778089769 | 13.89° C | 80% | 1018.8 hPa | 0 mm | - | - | - |
| 1778089528 | 13.89° C | 78% | 1018.8 hPa | 0 mm | - | - | - |
| 1778089228 | 13.33° C | 81% | 1018.8 hPa | 0 mm | - | - | - |
| 1778088928 | 13.33° C | 83% | 1018.9 hPa | 0 mm | - | - | - |
| 1778088689 | 12.78° C | 80% | 1018.8 hPa | 0 mm | - | - | - |
| 1778088628 | 12.78° C | 82% | 1018.9 hPa | 0 mm | - | - | - |
| 1778088328 | 12.22° C | 80% | 1019 hPa | 0 mm | - | - | - |
* Rain latest hour (hover to see other rain measurements)
** Current wind speed in m/s (hover to see current wind gust speed)